Location: ?????????
(54.7630°N, 39.4991°E)
Time: 21:34:05
(UTC+00:00)

Cosmos 1464 Rocket - Pass Details

Date: 14 April 2026
Orbit: 951 x 1001 km, 82.9° (Epoch: 16 May)

Event Time Altitude Azimuth Distance (km) Brightness Sun altitude
Exits shadow 22:16:20 40° 142° (SE) 1,386 4.5 -24.6°
Maximum altitude 22:18:11 54° 92° (E) 1,160 4.4 -24.5°
Drops below altitude 10° 22:24:08 10° 18° (NNE) 2,694 7.4 -24.3°
Sets 22:26:40 0° 14° (NNE) 3,642 8.4 -24.2°
